OBJECT-B - Orbit

View from above orbital plane
View from above orbital plane
View from above satellite
View from above satellite

Ground track
Ground track

The orbit data is extracted from the following two-line orbital elements,

1 33374U 08044B   13139.42190069  .00001761  00000-0  46727-3 0  3442
2 33374 049.4530 243.9675 5474040 275.0709 068.7258 04.82714784 81704
Epoch (UTC): 19 May 2013 10:07:32
Eccentricity: 0.5474040
inclination: 49.4530°
perigee height: 315 km
apogee height: 16506 km
right ascension of ascending node: 243.9675°
argument of perigee: 275.0709°
revolutions per day: 4.82714784
mean anomaly at epoch: 68.7258°
orbit number at epoch: 8170

The dashed part of the orbit path shows where the satellite is in the earth's shadow,  

Developed and maintained by Chris Peat, Heavens-Above GmbH. Please read the updated FAQ before sending e-mail. Imprint. DLR